Hourly Weather Kpalime

Today, 25 October, Sunday

Time Temperature Precipitation Wind Pressure Humidity
00:00 +23°C° 0 mm 0 mps 738 mmHg 97%
01:00 +22°C° 0 mm 0 mps 737 mmHg 97%
02:00 +22°C° 0 mm 0 mps 737 mmHg 97%
03:00 +22°C° 0 mm 0 mps 737 mmHg 98%
04:00 +22°C° 0 mm 0 mps 737 mmHg 98%
05:00 +22°C° 0 mm 0 mps 737 mmHg 97%
06:00 +22°C° 0 mm 0 mps 737 mmHg 97%
07:00 +26°C° 0 mm 1 mps 737 mmHg 90%
08:00 +27°C° 0 mm 1 mps 738 mmHg 84%
09:00 +29°C° 0 mm 1 mps 738 mmHg 77%
10:00 +31°C° 0 mm 1 mps 738 mmHg 70%
11:00 +33°C° 0 mm 1 mps 738 mmHg 62%
12:00 +34°C° 0 mm 1 mps 737 mmHg 55%
13:00 +34°C° 0.1 mm 1 mps 737 mmHg 55%
14:00 +34°C° 0.1 mm 1 mps 736 mmHg 54%
15:00 +34°C° 0.1 mm 1 mps 736 mmHg 54%
16:00 +31°C° 0.3 mm 1 mps 736 mmHg 63%
17:00 +29°C° 0.3 mm 1 mps 736 mmHg 72%
18:00 +27°C° 0.3 mm 1 mps 736 mmHg 81%
19:00 +27°C° 0.1 mm 1 mps 737 mmHg 85%
20:00 +26°C° 0.1 mm 1 mps 738 mmHg 90%
21:00 +25°C° 0.1 mm 1 mps 738 mmHg 94%
22:00 +25°C° 0 mm 1 mps 738 mmHg 95%
23:00 +23°C° 0 mm 0 mps 738 mmHg 96%

Tomorrow, 26 October, Monday

Time Temperature Precipitation Wind Pressure Humidity
00:00 +23°C° 0 mm 0 mps 737 mmHg 96%
01:00 +23°C° 0 mm 0 mps 737 mmHg 97%
02:00 +22°C° 0 mm 0 mps 737 mmHg 97%
03:00 +22°C° 0 mm 0 mps 736 mmHg 98%
04:00 +22°C° 0 mm 0 mps 737 mmHg 98%
05:00 +22°C° 0 mm 0 mps 737 mmHg 98%
06:00 +22°C° 0 mm 0 mps 737 mmHg 98%
07:00 +26°C° 0 mm 1 mps 738 mmHg 91%
08:00 +28°C° 0 mm 1 mps 738 mmHg 84%
09:00 +30°C° 0 mm 1 mps 738 mmHg 76%
10:00 +31°C° 0 mm 1 mps 738 mmHg 69%
11:00 +33°C° 0 mm 1 mps 738 mmHg 62%
12:00 +35°C° 0 mm 1 mps 737 mmHg 55%
13:00 +34°C° 0.3 mm 1 mps 736 mmHg 55%
14:00 +34°C° 0.3 mm 1 mps 736 mmHg 55%
15:00 +34°C° 0.3 mm 1 mps 735 mmHg 55%
16:00 +31°C° 0.6 mm 1 mps 735 mmHg 65%
17:00 +29°C° 0.6 mm 1 mps 736 mmHg 76%
18:00 +27°C° 0.6 mm 1 mps 736 mmHg 86%
19:00 +26°C° 0.1 mm 1 mps 736 mmHg 89%
20:00 +26°C° 0.1 mm 1 mps 737 mmHg 92%
21:00 +25°C° 0.1 mm 1 mps 737 mmHg 95%
22:00 +25°C° 0 mm 1 mps 737 mmHg 96%
23:00 +25°C° 0 mm 1 mps 737 mmHg 97%

Day after tomorrow, 27 October, Tuesday

Time Temperature Precipitation Wind Pressure Humidity
00:00 +25°C° 0 mm 1 mps 737 mmHg 97%
01:00 +25°C° 0 mm 1 mps 737 mmHg 98%
02:00 +25°C° 0 mm 1 mps 736 mmHg 98%
03:00 +24°C° 0 mm 1 mps 736 mmHg 98%
04:00 +22°C° 0 mm 0 mps 736 mmHg 98%
05:00 +22°C° 0 mm 0 mps 737 mmHg 98%
06:00 +22°C° 0 mm 0 mps 737 mmHg 98%
07:00 +26°C° 0 mm 1 mps 738 mmHg 92%
08:00 +27°C° 0 mm 1 mps 738 mmHg 87%
09:00 +29°C° 0 mm 1 mps 738 mmHg 81%
10:00 +31°C° 0 mm 1 mps 738 mmHg 74%
11:00 +32°C° 0 mm 1 mps 737 mmHg 66%
12:00 +34°C° 0 mm 1 mps 737 mmHg 59%
13:00 +33°C° 0.3 mm 1 mps 736 mmHg 60%
14:00 +33°C° 0.3 mm 1 mps 736 mmHg 61%
15:00 +33°C° 0.3 mm 1 mps 735 mmHg 62%
16:00 +31°C° 0.8 mm 1 mps 735 mmHg 71%
17:00 +29°C° 0.8 mm 1 mps 736 mmHg 80%
18:00 +27°C° 0.8 mm 1 mps 736 mmHg 88%
19:00 +26°C° 0.1 mm 1 mps 736 mmHg 91%
20:00 +26°C° 0.1 mm 1 mps 737 mmHg 93%
21:00 +25°C° 0.1 mm 1 mps 737 mmHg 95%
22:00 +25°C° 0 mm 1 mps 737 mmHg 96%
23:00 +25°C° 0 mm 1 mps 737 mmHg 96%

28 October, Wednesday

Time Temperature Precipitation Wind Pressure Humidity
00:00 +24°C° 0 mm 1 mps 737 mmHg 97%
01:00 +24°C° 0 mm 1 mps 737 mmHg 97%
02:00 +22°C° 0 mm 0 mps 736 mmHg 97%
03:00 +22°C° 0 mm 0 mps 736 mmHg 97%
04:00 +22°C° 0 mm 0 mps 737 mmHg 97%
05:00 +22°C° 0 mm 0 mps 737 mmHg 97%
06:00 +22°C° 0 mm 0 mps 737 mmHg 97%
07:00 +26°C° 0 mm 1 mps 738 mmHg 90%
08:00 +27°C° 0 mm 1 mps 738 mmHg 83%
09:00 +29°C° 0 mm 1 mps 739 mmHg 77%
10:00 +31°C° 0 mm 1 mps 738 mmHg 70%
11:00 +32°C° 0 mm 1 mps 738 mmHg 63%
12:00 +34°C° 0 mm 1 mps 738 mmHg 56%
13:00 +34°C° 0.2 mm 1 mps 737 mmHg 56%
14:00 +33°C° 0.2 mm 1 mps 736 mmHg 55%
15:00 +33°C° 0.2 mm 1 mps 736 mmHg 55%
16:00 +31°C° 0.2 mm 1 mps 736 mmHg 63%
17:00 +29°C° 0.2 mm 1 mps 736 mmHg 72%
18:00 +27°C° 0.2 mm 1 mps 736 mmHg 80%
19:00 +27°C° 0.1 mm 1 mps 737 mmHg 85%
20:00 +26°C° 0.1 mm 1 mps 737 mmHg 89%
21:00 +25°C° 0.1 mm 1 mps 738 mmHg 93%
22:00 +25°C° 0.1 mm 1 mps 738 mmHg 94%
23:00 +23°C° 0.1 mm 0 mps 738 mmHg 94%

29 October, Thursday

Time Temperature Precipitation Wind Pressure Humidity
00:00 +22°C° 0.1 mm 0 mps 738 mmHg 94%
01:00 +22°C° 0 mm 0 mps 737 mmHg 95%
02:00 +22°C° 0 mm 0 mps 737 mmHg 95%
03:00 +22°C° 0 mm 0 mps 737 mmHg 95%
04:00 +22°C° 0 mm 0 mps 737 mmHg 95%
05:00 +22°C° 0 mm 0 mps 737 mmHg 95%
06:00 +22°C° 0 mm 0 mps 738 mmHg 95%
07:00 +24°C° 0 mm 0 mps 738 mmHg 87%
08:00 +28°C° 0 mm 1 mps 739 mmHg 79%
09:00 +30°C° 0 mm 1 mps 739 mmHg 71%
10:00 +31°C° 0 mm 1 mps 739 mmHg 65%
11:00 +33°C° 0 mm 1 mps 738 mmHg 59%
12:00 +34°C° 0 mm 1 mps 738 mmHg 54%
13:00 +34°C° 0.2 mm 1 mps 737 mmHg 54%
14:00 +34°C° 0.2 mm 1 mps 737 mmHg 54%
15:00 +33°C° 0.2 mm 1 mps 736 mmHg 54%
16:00 +31°C° 0.3 mm 1 mps 736 mmHg 63%
17:00 +29°C° 0.3 mm 1 mps 736 mmHg 72%
18:00 +27°C° 0.3 mm 1 mps 737 mmHg 81%
19:00 +27°C° 0 mm 1 mps 737 mmHg 85%
20:00 +26°C° 0 mm 1 mps 738 mmHg 89%
21:00 +25°C° 0 mm 1 mps 738 mmHg 92%
22:00 +25°C° 0 mm 1 mps 738 mmHg 93%
23:00 +25°C° 0 mm 1 mps 738 mmHg 94%

30 October, Friday

Time Temperature Precipitation Wind Pressure Humidity
00:00 +25°C° 0 mm 1 mps 738 mmHg 95%
01:00 +24°C° 0 mm 1 mps 738 mmHg 96%
02:00 +22°C° 0 mm 0 mps 738 mmHg 96%
03:00 +22°C° 0 mm 0 mps 737 mmHg 97%
04:00 +22°C° 0 mm 0 mps 737 mmHg 97%
05:00 +22°C° 0 mm 0 mps 738 mmHg 97%
06:00 +22°C° 0 mm 0 mps 738 mmHg 96%
07:00 +24°C° 0 mm 0 mps 738 mmHg 89%
08:00 +28°C° 0 mm 1 mps 739 mmHg 81%
09:00 +30°C° 0 mm 1 mps 740 mmHg 74%
10:00 +31°C° 0 mm 1 mps 739 mmHg 68%
11:00 +32°C° 0 mm 1 mps 739 mmHg 61%
12:00 +34°C° 0 mm 1 mps 738 mmHg 55%
13:00 +34°C° 0.1 mm 1 mps 738 mmHg 55%
14:00 +34°C° 0.1 mm 1 mps 737 mmHg 54%
15:00 +34°C° 0.1 mm 1 mps 736 mmHg 53%
16:00 +31°C° 0.5 mm 1 mps 736 mmHg 63%
17:00 +29°C° 0.5 mm 1 mps 737 mmHg 74%
18:00 +27°C° 0.5 mm 1 mps 737 mmHg 84%
19:00 +27°C° 0 mm 1 mps 737 mmHg 87%
20:00 +26°C° 0 mm 1 mps 738 mmHg 91%
21:00 +25°C° 0 mm 1 mps 738 mmHg 94%
22:00 +25°C° 0 mm 1 mps 738 mmHg 95%
23:00 +25°C° 0 mm 1 mps 738 mmHg 96%
Show more